{"data":{"norad_id":54866,"intl_designator":"2022-177AY","name":"STARLINK-5398","alt_names":[],"object_type":"PAYLOAD","status":"ACTIVE","operator":null,"country":"US","launch_date":"2022-12-28","launch_site_code":"AFETR","launch_vehicle":null,"mission":null,"orbit_class":"UNKNOWN","rcs_meters":null,"size_class":null,"mass_kg":null,"dimensions":null,"purposes":["comms"],"wikipedia_slug":null,"has_3d_model":false,"image_url":null,"decayed_at":null,"tle_current":{"epoch":"2026-05-25T02:46:38.315136Z","epoch_age_seconds":75172,"freshness":"FRESH","line1":"1 54866U 22177AY  26145.11572124 -.00002279  00000+0 -73322-4 0  9991","line2":"2 54866  43.0063  49.5643 0001223 283.9571  76.1145 15.27577757188780","mean_motion":15.27577757,"eccentricity":0.0001223,"inclination_deg":43.0063,"raan_deg":49.5643,"arg_perigee_deg":283.9571,"mean_anomaly_deg":76.1145,"bstar":-7.3322e-5,"rev_number":18878,"period_min":94.266887129072,"perigee_km":482.21668851583,"apogee_km":483.89493627774,"semimajor_km":6861.1928123968,"source":"CELESTRAK","updated_at":"2026-05-25T13:38:17.728945Z"}}}